Погода в Стратфорде-на-Эйвоне

Великобритания     52°11′37″N   1°42′32″W
темп.,
°C
ветер,
м/с
пор.,
м/с
влажн.,
%
обл.,
%
осадки,
мм/ч
давл.,
гПа
погр.,
м
17 мая, пн
пн1701:00+6сз239584 0.5 99942
04:00+5зсз239738 0.0 100143
07:00+7зсз259523 0.0 1003214
10:00+11сз458382 0.3 1005832
13:00+12сз458497 1.9 1006670
16:00+13сз467486 1.2 10061096
19:00+12сз478161 2.6 1008473
22:00+7сз228595 0.1 101016
18 мая, вт
вт1801:00+5зюз339236 0.1 101152
04:00+4зюз359499 0.0 101185
07:00+7юз3692100 0.0 1012189
10:00+12з56732 0.1 10131073
13:00+14зюз565922 0.2 10131687
16:00+11зюз478683 1.4 1014352
19:00+10з238934 3.4 101457
22:00+7юз239429 1.3 101544
19 мая, ср
ср1901:00+6зюз229691 1.3 101530
04:00+5зсз119520 0.0 101511
07:00+7зсз13926 0.0 1016118
10:00+12зсз34742 0.0 1017839
13:00+14зсз456690 0.8 10181692
16:00+14сз57696 1.4 10191357
19:00+12зсз47813 2.4 1020429
22:00+7з35910 0.1 102384
20 мая, чт
чт2001:00+5зюз22933 0.1 102331
04:00+4юз2393100 0.0 102451
07:00+7юз249068 0.0 1024131
10:00+12юз5676100 0.0 1023764
13:00+14юз686478 0.0 10221516
16:00+11юз61086100 0.3 1020814
19:00+9ю71493100 1.3 1018732
22:00+9ю71690100 1.5 1015868
21 мая, пт
пт2101:00+9ююз81791100 2.2 1012755
04:00+9ююз71495100 0.4 10081026
07:00+10ююз6129213 0.6 1006853
10:00+12юз9138131 0.4 10041290
13:00+12юз91579100 1.2 10021763
16:00+11ююз91689100 1.7 9991626
19:00+9ююз81693100 2.7 9971235
22:00+8ююз101993100 1.4 9941414